�ϑ��N����,2022/9/28,,,
�ϑ���,�����ؔT,,,
�ϑ��n�_,30,,,
���x�v�ԍ�,20,,,
,,,,
����,�C��,����,����,���l
9:30:00,24.2,4,0.2,
9:31:00,24.1,5,0.6,
9:32:00,24.1,4,0.2,
9:33:00,24.1,4,0.8,
9:34:00,24.0,5,0.8,
9:35:00,23.9,6,0.4,
9:36:00,23.8,5,0.2,
9:37:00,23.8,5,1,
9:38:00,23.8,6,0.2,
9:39:00,23.7,6,0.2,
9:40:00,23.7,5,0.2,
9:41:00,23.8,,0,
9:42:00,24.0,4,0.2,
9:43:00,24.0,4,1,
9:44:00,24.0,4,1.2,
9:45:00,24.0,4,0.8,
9:46:00,23.9,4,0.4,
9:47:00,23.8,4,0.2,
9:48:00,23.7,4,0.8,
9:49:00,23.6,5,0.2,
9:50:00,23.5,4,0.2,
9:51:00,23.5,4,0.4,
9:52:00,23.7,5,0.8,
9:53:00,23.7,4,0.8,
9:54:00,23.7,5,0.1,
9:55:00,23.7,,0,
9:56:00,23.7,4,0.2,
9:57:00,23.8,5,0.2,
9:58:00,23.8,5,0.4,
9:59:00,23.8,4,0.6,
10:00:00,23.9,4,0.8,
10:01:00,24.0,5,0.4,
10:02:00,24.0,5,0.2,
10:03:00,24.1,4,0.2,
10:04:00,24.1,,0,
10:05:00,24.1,4,0.2,
10:06:00,24.2,5,0.4,
10:07:00,24.2,6,0.2,
10:08:00,24.4,5,0.2,
10:09:00,24.6,4,0.4,
10:10:00,24.6,4,1,
10:11:00,24.6,5,0.2,
10:12:00,24.6,4,0.2,
10:13:00,24.7,4,0.8,
10:14:00,24.8,4,0.4,
10:15:00,24.8,5,0.2,
10:16:00,24.9,4,0.8,
10:17:00,25.1,4,0.4,
10:18:00,25.2,5,0.2,
10:19:00,25.1,4,0.2,
10:20:00,25.0,4,0.2,
10:21:00,25.0,4,0.4,
10:22:00,24.9,4,0.6,
10:23:00,24.8,4,0.8,
10:24:00,24.8,5,0.2,
10:25:00,24.7,4,1,
10:26:00,24.9,4,0.4,
10:27:00,25.0,5,0.2,
10:28:00,25.1,4,0.4,
10:29:00,25.1,4,0.6,
10:30:00,25.1,4,0.6,
10:31:00,25.1,4,0.6,
10:32:00,25.0,4,0.2,
10:33:00,25.1,4,0.2,
10:34:00,25.1,4,0.2,
10:35:00,25.3,4,0.4,
10:36:00,25.2,4,0.6,
10:37:00,25.2,,0,
10:38:00,25.3,4,0.6,
10:39:00,25.5,4,0.2,
10:40:00,25.5,4,0.2,
10:41:00,25.6,4,0.2,
10:42:00,25.5,4,0.2,
10:43:00,25.5,4,0.2,
10:44:00,25.7,5,0.2,
10:45:00,25.6,4,0.4,
10:46:00,25.5,4,0.4,
10:47:00,25.5,4,0.2,
10:48:00,25.5,4,0.2,
10:49:00,25.4,4,0.8,
10:50:00,25.4,4,0.2,
10:51:00,25.5,4,0.2,
10:52:00,25.5,,0,
10:53:00,25.7,,0,
10:54:00,25.8,4,0.2,
10:55:00,25.8,4,0.2,
10:56:00,25.8,5,0.2,
10:57:00,25.8,5,0.2,
10:58:00,25.9,5,0.8,
10:59:00,26.0,4,0.8,
11:00:00,26.1,4,1.2,
11:01:00,26.1,5,0.2,
11:02:00,26.1,5,0.6,
11:03:00,26.1,4,0.2,
11:04:00,26.1,5,0.2,
11:05:00,26.2,5,0.4,
11:06:00,26.2,4,0.2,
11:07:00,26.1,6,0.2,
11:08:00,26.1,5,0.8,
11:09:00,26.2,5,0.4,
11:10:00,26.3,4,0.2,
11:11:00,26.5,4,0.6,
11:12:00,26.6,5,0.6,
11:13:00,26.6,4,0.8,
11:14:00,26.5,4,0.6,
11:15:00,26.6,5,0.4,
11:16:00,26.7,4,0.2,
11:17:00,26.8,5,0.2,
11:18:00,26.9,4,0.2,
11:19:00,26.9,5,0.2,
11:20:00,26.7,4,0.2,
11:21:00,26.7,5,0.2,
11:22:00,26.6,5,0.2,
11:23:00,26.6,5,0.4,
11:24:00,26.5,4,0.2,
11:25:00,26.6,2,0.6,
11:26:00,26.6,5,0.2,
11:27:00,26.6,5,0.2,
11:28:00,26.7,4,0.8,
11:29:00,26.4,5,0.8,
11:30:00,26.4,5,0.6,
,,,,
